This is the latest recevied weather packets stored in our database for station/object K4KJQ-13. If no packets are shown the sender has not sent any weather packets the latest 1 day(s).
| Time | Temp. | Humidity | Pressure | Rain* | Wind** | Luminosity | Snow |
|---|---|---|---|---|---|---|---|
| 1778031670 | 16.67° C | 100% | 0 hPa | 0.51 mm | 1.79 m/s, 282° | - | - |
| 1778031370 | 16.67° C | 100% | 0 hPa | 0.51 mm | 0.45 m/s, 215° | - | - |
| 1778031070 | 16.67° C | 100% | 0 hPa | 0.51 mm | 0.89 m/s, 270° | - | - |
| 1778030771 | 16.67° C | 100% | 0 hPa | 0.51 mm | 0.45 m/s, 267° | - | - |
| 1778030471 | 17.22° C | 100% | 0 hPa | 0.51 mm | 0.45 m/s, 220° | - | - |
| 1778030170 | 16.67° C | 100% | 0 hPa | 0.51 mm | 2.24 m/s, 282° | - | - |
| 1778029870 | 16.67° C | 100% | 0 hPa | 0.51 mm | 0.89 m/s, 291° | - | - |
| 1778029571 | 16.67° C | 100% | 0 hPa | 0.51 mm | 1.34 m/s, 288° | - | - |
| 1778029270 | 16.67° C | 100% | 0 hPa | 0.25 mm | 0.45 m/s, 209° | - | - |
| 1778028970 | 16.67° C | 100% | 0 hPa | 0.25 mm | 0.89 m/s, 260° | - | - |
| 1778028671 | 17.22° C | 100% | 0 hPa | 0.25 mm | 0.89 m/s, 275° | - | - |
| 1778028370 | 17.22° C | 100% | 0 hPa | 0.25 mm | 0.89 m/s, 277° | - | - |
| 1778028071 | 18.33° C | 100% | 0 hPa | 0 mm | 1.34 m/s, 217° | - | - |
| 1778027770 | 18.33° C | 100% | 0 hPa | 0 mm | 0.45 m/s, 285° | - | - |
| 1778027471 | 18.89° C | 100% | 0 hPa | 0 mm | 0.45 m/s, 264° | - | - |
| 1778027171 | 18.89° C | 100% | 0 hPa | 0 mm | 0 m/s | - | - |
| 1778026871 | 18.89° C | 100% | 0 hPa | 0 mm | 1.34 m/s, 291° | - | - |
| 1778026571 | 18.89° C | 100% | 0 hPa | 0 mm | 1.34 m/s, 267° | - | - |
| 1778026271 | 18.89° C | 100% | 0 hPa | 0 mm | 1.34 m/s, 261° | - | - |
| 1778025971 | 18.89° C | 100% | 0 hPa | 0 mm | 2.68 m/s, 291° | - | - |
| 1778025671 | 19.44° C | 100% | 0 hPa | 0 mm | 1.79 m/s, 292° | - | - |
| 1778025371 | 18.89° C | 100% | 0 hPa | 0 mm | 2.68 m/s, 285° | - | - |
| 1778025071 | 19.44° C | 100% | 0 hPa | 0 mm | 1.79 m/s, 277° | - | - |
| 1778024771 | 18.89° C | 100% | 0 hPa | 0 mm | 2.24 m/s, 284° | - | - |
| 1778024471 | 19.44° C | 100% | 0 hPa | 0 mm | 2.68 m/s, 288° | - | - |
* Rain latest hour (hover to see other rain measurements)
** Current wind speed in m/s (hover to see current wind gust speed)